Regional Weather Roundup
Issued by NWS

Home | Current Version | Previous Version | Text Only | Print | Product List | Glossary On
Versions: 1 2 3 4 5 6 7 8 9 10 11 12 13 14 15 16 17 18 19 20 21 22 23 24 25 26 27 28 29 30 31 32 33 34 35 36 37 38 39 40 41 42 43 44 45 46 47 48 49 50
000
ASUS44 KJAN 031410
RWRMS

MISSISSIPPI HOURLY WEATHER ROUNDUP
NATIONAL WEATHER SERVICE JACKSON MS
900 AM CDT TUE MAY 03 2016

NOTE: "FAIR: INDICATES FEW OR NO CLOUDS BELOW 12,000 FEET WITH NO
SIGNIFICANT WEATHER AND/OR OBSTRUCTIONS TO VISIBILITY.

MSZ001>002-007>008-010>013-018>021-025>028-034>036-031500-
NORTHWEST MISSISSIPPI

CITY           SKY/WX    TMP DP  RH WIND       PRES   REMARKS
BATESVILLE     PTSUNNY   61  55  82 N3        30.03R
CLEVELAND      PTSUNNY   60  58  90 N9        30.03R
GREENWOOD      SUNNY     63  55  75 N7        30.02R
GREENVILLE     PTSUNNY   62  54  74 N10       30.03R
OLIVE BRANCH   PTSUNNY   57  55  94 N12       30.03R
OXFORD         FAIR      59  54  82 N7        30.03S
TUNICA         CLOUDY    57  54  88 N9        30.05R
WINONA         PTSUNNY   62  57  85 NE7       30.01R
$$

MSZ003>006-009-014>017-022>024-029>033-037>039-031500-
NORTHEAST MISSISSIPPI

CITY           SKY/WX    TMP DP  RH WIND       PRES   REMARKS
COLUMBUS AFB   CLOUDY    61  59  94 NW3       29.99R
CORINTH        FAIR      61  54  77 N6        30.00S
STARKVILLE     PTSUNNY   61  55  82 N3        29.99S
TUPELO         CLOUDY    60  54  80 N8        30.00R
$$

MSZ040-058-031500-
CENTRAL MISSISSIPPI

CITY           SKY/WX    TMP DP  RH WIND       PRES   REMARKS
JACKSON INTL   CLOUDY    65  59  81 N9        30.00R
JACKSON HAWKNS CLOUDY    64  59  83 N5        30.01R
MADISON        PTSUNNY   63  57  82 NW9       30.00S
MERIDIAN KEY   CLOUDY    65  59  81 N9        29.99R
MERIDIAN NAS   CLOUDY    64  59  83 N6        29.98S
VICKSBURG TVR  MOSUNNY   68  58  70 NE7       30.02R
VICKSBURG VKS  MOSUNNY   64  59  82 NE6       30.02R
$$

MSZ059>079-031500-
SOUTH MISSISSIPPI

CITY           SKY/WX    TMP DP  RH WIND       PRES   REMARKS
BROOKHAVEN     CLOUDY   N/A N/A N/A N7        30.01R
COLUMBIA       CLOUDY    64  61  88 NE3       30.02S
HATTIESBURG    CLOUDY    68  61  78 VRB3      29.98S
MCCOMB         CLOUDY    66  61  84 N5        29.99R
NATCHEZ        CLOUDY    63  59  88 N7        30.01R
PINE BELT      CLOUDY    64  59  82 N3        30.00R
$$

MSZ080>082-031500-
COASTAL MISSISSIPPI

CITY           SKY/WX    TMP DP  RH WIND       PRES   REMARKS
BAY ST LOUIS   CLOUDY    68  63  83 N9        29.96R
BILOXI         CLOUDY    71  71 100 N9        29.95R
PASCAGOULA     CLOUDY    71  68  90 N9        29.95R
GULFPORT       CLOUDY    71  66  84 N12       29.95R
$$



USA.gov is the U.S. government's official web portal to all federal, state and local government web resources and services.